Location: Kearney
(40.6990°N, 99.0810°W)
Time: 12:41:21
(UTC-06:00)

Daily predictions for brighter satellites

Satellite Brightness Start Highest point End
(mag) Time Altitude Azimuth Time Altitude Azimuth Time Altitude Azimuth
IDEFIX/ARIANE 42P 3.8 17:33:36 10° S 17:38:35 48° W 17:43:36 10° NNW
ATLAS 2AS CENTAUR R/B 3.5 17:31:54 10° SW 17:39:36 64° NW 17:47:42 10° NNE
Cosmos 158 Rocket 3.9 17:35:36 10° NNW 17:40:38 61° ENE 17:45:30 10° SSE
Cosmos 1271 Rocket 2.7 17:36:57 10° N 17:40:47 84° E 17:44:39 10° S
Cosmos 2279 Rocket 4.2 17:36:13 10° S 17:42:29 83° W 17:48:47 10° N
NOSS 8 (A) 4.3 17:39:32 10° SSW 17:42:52 86° ESE 17:46:08 10° NE
ISS -1.8 17:40:59 10° WNW 17:44:00 34° SW 17:47:00 10° SSE
Meteor 2-9 Rocket 4.3 17:39:11 10° N 17:44:31 51° ENE 17:49:42 10° SSE
Cosmos 1980 Rocket 3.5 17:41:19 10° SSE 17:45:30 22° E 17:49:44 10° NE
Cosmos 2084 4.4 17:43:21 10° S 17:47:00 29° ESE 17:50:29 10° ENE
Cosmos 1656 3.7 17:44:51 10° S 17:50:21 64° ESE 17:55:48 10° NNE
USA 215 3.3 17:45:03 10° ESE 17:51:28 62° NE 17:57:54 10° NW
Cosmos 1666 2.8 17:48:42 10° N 17:52:28 78° W 17:56:11 10° S
Cosmos 2297 Rocket 2.2 17:50:32 10° NNW 17:56:13 79° ENE 18:01:52 10° SSE
DELTA 2 R/B (1) 3.7 17:51:03 10° W 17:56:37 79° S 18:02:12 10° E
Cosmos 1536 Rocket 3.5 17:53:42 10° S 17:58:01 70° E 18:02:20 10° NNE
CZ-2C R/B 4.2 17:54:07 10° NNE 17:58:38 44° E 18:03:10 10° S
CZ-2C R/B 4.1 17:55:25 10° SSW 18:00:17 41° W 18:05:09 10° NNW
NOSS 3-4 (A) 3.7 17:55:12 10° SSW 18:01:12 53° ESE 18:07:23 10° NE
NOSS 3-4 (C) 3.7 17:55:18 10° SSW 18:01:17 53° ESE 18:07:28 10° NE
Meteor 1-23 Rocket 4.5 17:56:07 10° SSE 18:01:37 49° E 18:07:05 10° NNE
Cosmos 1484 Rocket 2.9 18:00:23 10° SSE 18:04:24 89° WSW 18:08:26 10° NNW
SJ-7 4.5 18:02:14 10° S 18:06:13 80° WSW 18:10:13 10° NNW
USA 161 4.3 18:07:55 10° NNW 18:10:07 19° WNW 18:12:21 10° WSW
CENTAUR R/B 3.7 18:06:20 10° NNW 18:13:22 35° NE 18:20:53 10° ESE
SKYMED 2 4.1 18:10:14 10° NNE 18:14:16 36° E 18:18:16 10° SSE
Cosmos 1241 Rocket 4.5 18:08:17 10° SSW 18:14:37 71° ESE 18:20:49 10° NE
SMAP 3.3 18:11:45 10° S 18:16:23 76° WSW 18:21:04 10° NNW
CSL-04 Debris 4.5 18:13:52 10° S 18:19:14 71° WSW 18:24:38 10° NNW
Atlas Centaur 2 4.4 18:16:54 10° WSW 18:20:38 17° SSW 18:23:54 10° SSE
METEOR-M 4.1 18:17:09 10° SSE 18:22:23 61° ENE 18:27:40 10° N
NOSS 2-2 (E) 4.3 18:20:35 10° S 18:23:59 29° ESE 18:25:39 22° ENE
CZ-4 R/B 4.4 18:20:41 10° SSE 18:24:45 63° ENE 18:28:51 10° N
Lacrosse 5 rocket 3.4 18:23:31 10° SE 18:25:12 12° ESE 18:25:21 12° ESE
FENGYUN 3A 4.0 18:21:08 10° SE 18:26:07 40° ENE 18:31:06 10° N
Meteor 2-4 Rocket 4.1 18:22:13 10° SSW 18:27:35 64° WNW 18:32:55 10° N
Cosmos 2263 Rocket 3.9 18:25:55 10° NNE 18:27:54 14° NE 18:27:54 14° NE
BREEZE-M DEB (TANK) 4.2 18:26:32 10° NW 18:28:57 24° NNE 18:30:38 20° NE
SL-16 R/B 3.7 18:26:21 10° SE 18:29:37 16° E 18:29:37 16° E
Meteor 1-28 Rocket 3.8 18:26:17 10° N 18:29:58 56° WNW 18:33:41 10° SSW
NOSS 2-2 (C) 4.3 18:27:48 10° S 18:31:11 29° ESE 18:32:18 25° E
ALOS 2.5 18:28:04 10° SE 18:32:29 44° ENE 18:36:56 10° N
Cosmos 2322 Rocket 3.6 18:29:51 10° SE 18:32:59 17° ESE 18:32:59 17° ESE
IRS-1A Rocket 4.2 18:27:52 10° SSE 18:33:27 89° WSW 18:39:00 10° NNW
Cosmos 2278 4.5 18:29:01 10° SW 18:34:32 52° WNW 18:40:07 10° NNE
Ariane Rocket 3.9 18:29:38 10° S 18:34:32 51° W 18:39:28 10° NNW
Gblst 52 Del rocket 4.2 18:31:40 10° NW 18:37:18 71° NNE 18:42:42 14° ESE
USA 116 3.6 18:34:21 10° N 18:37:27 59° WNW 18:40:30 10° SSW
Cosmos 494 Rocket 4.0 18:33:27 10° N 18:38:38 54° ENE 18:43:45 10° SE
SPOT 3 Rocket 3.6 18:33:51 10° SE 18:38:51 52° ENE 18:43:52 10° N
Cosmos 2360 4.3 18:35:13 10° S 18:40:49 58° ESE 18:44:45 20° NE
Cosmos 1515 3.7 18:38:06 10° S 18:41:53 83° W 18:45:37 10° N
RESURS DK-1 2.7 18:38:03 10° S 18:41:58 44° ESE 18:43:08 34° ENE
Cosmos 1184 Rocket 3.7 18:39:34 10° SSE 18:41:55 31° ESE 18:41:55 31° ESE
Cosmos 2266 Rocket 4.5 18:37:20 10° NNW 18:43:20 62° W 18:49:25 10° S
Cosmos 1892 Rocket 4.3 18:40:13 10° SSE 18:44:09 31° E 18:44:10 31° E
YAOGAN 1 2.8 18:40:07 10° S 18:44:25 72° WSW 18:48:46 10° NNW
MTI 3.8 18:44:45 21° N 18:46:48 80° WNW 18:50:02 10° SSW
Cosmos 1697 Rocket 3.0 18:41:25 10° SSW 18:47:02 67° WNW 18:52:23 11° NNE
EO 1 Del DPAF 3.1 18:45:57 25° NNE 18:48:06 70° ESE 18:51:54 10° S
Cosmos 2251 Rocket 3.8 18:43:09 10° N 18:48:13 44° ENE 18:53:12 10° SE
ERS-2 1.9 18:48:41 10° SSE 18:52:20 79° ENE 18:56:01 10° N
PSLV R/B 3.0 18:55:42 10° W 18:58:47 82° SW 18:58:47 82° SW
Landsat 4 4.5 18:56:00 12° N 18:59:23 52° WNW 19:03:05 10° SSW
SJ 16-02 3.5 18:57:36 10° WSW 19:01:07 23° WNW 19:04:40 10° N
COSMO-SKYMED 1 2.9 18:58:12 11° N 19:02:22 63° WNW 19:06:39 10° SSW
CZ-4 R/B 3.5 18:59:25 10° SSW 19:02:45 27° W 19:06:11 10° NW
Abrixas rocket 4.2 19:04:47 10° NW 19:06:20 20° NNW 19:06:20 20° NNW
S3M 3.9 19:01:47 10° SSE 19:07:43 55° E 19:11:12 25° NNE
Cosmos 1025 Rocket 4.5 19:17:22 10° SW 19:21:20 36° WNW 19:25:14 10° N
FengYun 1-2 T 4.1 19:22:37 10° SSE 19:28:12 76° ENE 19:33:52 10° N
Cosmos 1980 Rocket 2.9 19:23:32 10° SW 19:29:03 52° WNW 19:32:15 25° N
Cosmos 1066 Rocket 4.4 19:29:11 10° SSW 19:34:40 68° W 19:37:35 28° N
Cosmos 1553 Rocket 4.2 19:33:37 10° SSW 19:40:01 74° W 19:45:46 13° N
DELTA 2 R/B (1) 4.3 19:37:33 10° W 19:42:49 44° SSW 19:43:43 41° S
Meteor 1-22 Rocket 4.2 19:40:48 10° N 19:46:44 85° W 19:52:23 10° S
Cosmos 1745 Rocket 4.1 19:47:56 10° N 19:54:09 74° W 20:00:23 10° S
BREEZE-M DEB (TANK) 4.2 19:48:13 10° WNW 20:00:46 52° SW 20:01:01 52° SSW
Lacrosse 5 rocket 3.6 19:59:32 10° SW 20:01:05 22° SW 20:01:05 22° SW
CENTAUR R/B 3.3 19:56:45 10° NW 20:04:42 69° WSW 20:09:42 27° SSE
SL-16 R/B 3.0 20:07:34 10° SSW 20:11:33 45° SW 20:11:33 45° SW
Cosmos 2263 Rocket 4.1 20:08:02 10° NNW 20:09:39 20° NNW 20:09:39 20° NNW
Cosmos 2322 Rocket 3.2 20:11:13 10° SW 20:14:52 40° SW 20:14:52 40° SW
Cosmos 2344 3.7 20:25:26 10° SW 20:32:09 70° WSW 20:32:09 70° WSW
